FW3223 Weather Reports


time (UTC)temp
F
wind
direction
speed
knots
gust
knots
rain 1hr
in
rain 24hr
in
rain mn
in
humidity
%
barometer
mb
20210927074518 64 109 0.9 2.6 0.00 0.00 0.00 62 1025.0
20210927073119 64 110 0.9 2.6 0.00 0.00 0.00 62 1025.0
20210927071546 63 77 0.0 0.0 0.00 0.00 0.00 64 1024.9
20210927070006 62 76 0.0 2.6 0.00 0.00 0.00 63 1024.8
20210927064501 62 77 1.7 3.5 0.00 0.00 0.00 63 1024.8
20210927061918 62 64 0.0 0.0 0.00 0.00 0.00 63 1024.8
20210927060202 62 64 0.0 0.0 0.00 0.00 0.00 63 1024.6
20210927054605 62 64 0.0 0.0 0.00 0.00 0.00 63 1024.5
20210927053333 62 64 0.0 0.0 0.00 0.00 0.00 63 1024.5
20210927051705 62 64 0.0 1.7 0.00 0.00 0.00 63 1024.5
20210927050150 62 64 0.9 3.5 0.00 0.00 0.00 63 1024.6
20210927044601 62 53 0.9 2.6 0.00 0.00 0.00 64 1024.5
20210927043043 62 33 1.7 2.6 0.00 0.00 0.00 64 1024.5
20210927041529 62 78 1.7 2.6 0.00 0.00 0.00 64 1024.5
20210927040019 62 78 0.9 2.6 0.00 0.00 0.00 64 1024.6
20210927034521 62 78 0.0 2.6 0.00 0.00 0.00 64 1024.4
20210927033025 62 78 0.9 2.6 0.00 0.00 0.00 64 1024.6
20210927031528 63 78 0.9 2.6 0.00 0.00 0.00 64 1024.7
20210927024649 63 71 0.9 2.6 0.00 0.00 0.00 64 1024.8
20210927023215 63 71 1.7 3.5 0.00 0.00 0.00 64 1024.9
20210927021627 63 72 1.7 3.5 0.00 0.00 0.00 64 1024.8
20210927020113 63 74 1.7 3.5 0.00 0.00 0.00 64 1025.0
20210927014729 63 81 0.9 2.6 0.00 0.00 0.00 64 1025.0
20210927013101 63 84 0.0 3.5 0.00 0.00 0.00 64 1025.0
20210927011632 63 86 0.9 2.6 0.00 0.00 0.00 64 1025.1
20210927010030 64 85 0.9 2.6 0.00 0.00 0.00 63 1025.1
20210927004543 64 81 0.0 2.6 0.00 0.00 0.00 62 1025.1
20210927003033 64 72 0.0 0.0 0.00 0.00 0.00 61 1025.1
20210927001533 65 61 0.0 0.0 0.00 0.00 0.00 60 1025.2
20210927000020 65 313 0.0 0.0 0.00 0.00 0.00 58 1025.3
20210926234515 65 313 0.0 0.9 0.00 0.00 0.00 58 1025.3
20210926233014 66 313 0.0 0.0 0.00 0.00 0.00 57 1025.4
20210926231506 66 313 0.0 1.7 0.00 0.00 0.00 58 1025.4
20210926224625 66 311 0.0 0.0 0.00 0.00 0.00 60 1025.3
20210926223122 66 311 0.9 3.5 0.00 0.00 0.00 61 1025.2
20210926221708 66 304 0.0 0.0 0.00 0.00 0.00 61 1025.2
20210926220100 67 302 0.0 2.6 0.00 0.00 0.00 61 1025.3
20210926214618 67 297 0.0 4.3 0.00 0.00 0.00 61 1025.2
20210926213151 67 300 1.7 4.3 0.00 0.00 0.00 60 1025.2
20210926211604 67 318 0.9 3.5 0.00 0.00 0.00 59 1025.2
20210926210021 67 293 0.9 4.3 0.00 0.00 0.00 58 1025.1
20210926204541 67 319 3.5 7.0 0.00 0.00 0.00 58 1025.0
20210926203035 67 360 2.6 5.2 0.00 0.00 0.00 58 1024.8
20210926201533 67 315 2.6 5.2 0.00 0.00 0.00 58 1024.8
20210926200003 67 306 2.6 6.1 0.00 0.00 0.00 58 1024.6
20210926194505 67 301 1.7 6.1 0.00 0.00 0.00 58 1024.5
20210926191736 67 304 2.6 7.8 0.00 0.00 0.00 58 1024.2
20210926190156 67 317 3.5 7.0 0.00 0.00 0.00 58 1024.2
20210926184603 68 288 1.7 7.0 0.00 0.00 0.00 59 1024.0
20210926183212 68 273 2.6 7.0 0.00 0.00 0.00 58 1023.9
20210926181542 68 258 2.6 7.0 0.00 0.00 0.00 58 1023.8
20210926180033 68 267 1.7 7.8 0.00 0.00 0.00 59 1023.7
20210926174556 68 360 3.5 8.7 0.00 0.00 0.00 59 1023.6
20210926173024 67 296 3.5 8.7 0.00 0.00 0.00 60 1023.6
20210926171540 67 244 5.2 9.6 0.00 0.00 0.00 60 1023.6
20210926170006 67 290 6.1 8.7 0.00 0.00 0.00 61 1023.4
20210926164505 67 245 5.2 8.7 0.00 0.00 0.00 61 1023.6
20210926163004 68 246 5.2 7.8 0.00 0.00 0.00 59 1023.6
20210926161503 68 274 3.5 7.8 0.00 0.00 0.00 61 1023.6
20210926154638 67 253 4.3 7.8 0.00 0.00 0.00 62 1023.7
20210926153125 67 244 5.2 8.7 0.00 0.00 0.00 62 1023.6
20210926151607 67 360 6.1 10.4 0.00 0.00 0.00 62 1023.6
20210926150129 67 254 6.1 8.7 0.00 0.00 0.00 63 1023.7
20210926144532 67 242 7.0 8.7 0.00 0.00 0.00 63 1023.6
20210926143117 67 227 7.0 9.6 0.00 0.00 0.00 64 1023.6
20210926141525 68 246 5.2 8.7 0.00 0.00 0.00 64 1023.5
20210926140014 69 236 4.3 7.0 0.00 0.00 0.00 63 1023.5
20210926134505 69 233 2.6 4.3 0.00 0.00 0.00 62 1023.6
20210926133000 69 253 2.6 6.1 0.00 0.00 0.00 63 1023.6
20210926131658 68 238 3.5 6.1 0.00 0.00 0.00 63 1023.8
20210926130231 70 218 2.6 4.3 0.00 0.00 0.00 60 1023.9
20210926124609 71 203 0.9 2.6 0.00 0.00 0.00 59 1023.9
20210926123116 71 180 0.9 2.6 0.00 0.00 0.00 60 1024.0
20210926121549 70 181 1.7 2.6 0.00 0.00 0.00 60 1024.1
20210926120039 70 190 0.9 3.5 0.00 0.00 0.00 60 1024.2
20210926114539 70 198 0.9 2.6 0.00 0.00 0.00 61 1024.4
20210926113047 70 197 0.9 3.5 0.00 0.00 0.00 60 1024.4
20210926111529 70 189 1.7 4.3 0.00 0.00 0.00 58 1024.6
20210926104705 71 192 1.7 3.5 0.00 0.00 0.00 56 1024.7
20210926103159 71 185 0.9 2.6 0.00 0.00 0.00 56 1024.5
20210926101557 71 183 0.9 2.6 0.00 0.00 0.00 56 1024.5
20210926100104 70 180 0.9 2.6 0.00 0.00 0.00 57 1024.4
20210926094641 69 185 1.7 3.5 0.00 0.00 0.00 57 1024.3
20210926093029 69 179 1.7 4.3 0.00 0.00 0.00 57 1024.1
20210926091528 69 178 1.7 3.5 0.00 0.00 0.00 57 1024.1
20210926090028 68 166 0.0 4.3 0.00 0.00 0.00 58 1024.1
20210926084508 68 153 0.0 3.5 0.00 0.00 0.00 58 1023.9
20210926083002 67 119 0.0 3.5 0.00 0.00 0.00 59 1023.6
20210926081616 66 109 0.9 2.6 0.00 0.00 0.00 60 1023.9
20210926080100 65 103 0.9 1.7 0.00 0.00 0.00 62 1023.8